STARLINK-1692, 46542

Orbit data source: Space-Track

STARLINK-1692, 46542 is a payload satellite owned by SpaceX/Seattle (US) in LEO that was launched on Tue, 06 Oct 2020 UTC via an FALCON 9 launch vehicle from the Air Force Eastern Test Range (AFETR). Payload-class satellites include a variety of spacecraft equipped with specific instruments for various scientific and technological missions. These include communications satellites like Starlink; space stations such as the ISS; scientific satellites like the Hubble; Earth observation satellites from companies like Planet Labs, Umbra, and HawkEye 360; GPS; miniature CubeSats for education and research; and military/defense satellites.

Loading next visibility...
Identifier
46542, 2020-070L
Orbit
LEO
Country
Flag of USUS
Related business
Manufacturer
SpaceX/Seattle
Mission
Partially operational Commercial Communications
Bus & Motor
STARLINK, Unknown motor
Mass
260 kg wet, ~248 kg dry
Launch date (UTC)
2020-10-06 (5 years ago)
Launch vehicle
FALCON 9
Launch site
Air Force Eastern Test Range (AFETR)
Object type
Payload
Rocket body
Debris
Shape & HBR
Box + 1 Pan, 10.1 m
Radar Cross Section
13.562 m², Large (>1 m²)

Expand to show TLE details & history
Last TLE update: 3 hours ago

TLE from 3 hours ago
0 STARLINK-1692
1 46542U 20070L   25291.33336806  .00294303  00000-0  26644-2 0  9996
2 46542  53.0466  45.6785 0004372 218.7639 338.3850 15.66612949  5952
Epoch: 2025-10-18T08:00Z
TLE epoch observation values (Epoch: 2025-10-18T08:00:03.000Z)
Latitude
-13.7724°
Longitude
89.16562°
Altitude
369.554 km
Speed
7.69 km/s
True Right ascension
15h 44m 58s
True Declination
-13° 41' 19"
Sunlit
Object was in daylight at epoch
Visualization orbit readout
Latitude
Unknown
Longitude
Unknown
Altitude
Unknown
Speed
Unknown
Apparent Right ascension
Unknown
Apparent Declination
Unknown
Sunlit
N/A
Visualization observer readout
Local Sidereal Time
06:05:04
Azimuth
Unknown
Elevation
Unknown
Doppler factor
Unknown
Orbital elements
Apogee altitude
371.833 km
Perigee altitude
365.933 km
Semi-major axis
6,747.02 km
Eccentricity
0.00044
Inclination
53.0466°
RAAN
45.6785°
Arg. of periapsis
218.7639°
True anomaly
338.36654°
Mean anomaly
338.385°
Eccentric anomaly
338.37577°
Mean motion
3.91629 °/min
Orbital period
91.92 mins
BSTAR
0.0026644
Loading maneuver chart data...
Computing Atmospheric mass density...

Documentation

Showing up to 5 results
|